Regional Weather Roundup
Issued by NWS

Home | Current Version | Previous Version | Graphics & Text | Print | Product List | Glossary On
Versions: 1 2 3 4 5 6 7 8 9 10 11 12 13 14 15 16 17 18 19 20 21 22 23 24 25 26 27 28 29 30 31 32 33 34 35 36 37 38 39 40 41 42 43 44 45 46 47 48 49 50
000
ASUS43 KLSX 311907
RWRMO

WEATHER SUMMARY FOR MISSOURI
NATIONAL WEATHER SERVICE SPRINGFIELD MO
100 PM CST SAT JAN 31 2015

NOTE: "FAIR" INDICATES FEW OR NO CLOUDS BELOW 12,000 FEET WITH NO
       SIGNIFICANT WEATHER AND/OR OBSTRUCTIONS TO VISIBILITY.
       CURRENT SKY AND/OR WEATHER CONDITIONS ARE NOT AVAILABLE FOR
       CHILLICOTHE AND FARMINGTON.

MOZ001>031-035>038-043-044-053-054-312000-
...NORTHERN AND WESTERN MISSOURI...

CITY           SKY/WX    TMP DP  RH WIND       PRES   REMARKS
KANSAS CTY INT LGT RAIN  39  38  96 S12       30.15F
KANSAS C DTWN  LGT RAIN  40  37  89 S12       30.17F
LEE`S SUMMIT   LGT RAIN  37  36  96 S6        30.16F FOG
ST JOSEPH      LGT RAIN  38  36  92 S9        30.16F FOG
CHILLICOTHE      N/A     39  37  92 S5        30.21F
KIRKSVILLE     LGT RAIN  36  35  96 S7        30.20F FOG

$$
MOZ066>068-077>081-088>096-101>105-312000-
...SOUTHWEST MISSOURI...

CITY           SKY/WX    TMP DP  RH WIND       PRES   REMARKS
SPRINGFIELD    CLOUDY    44  16  32 SE21      30.15F
JOPLIN         CLOUDY    47  18  31 S7        30.16F

$$
MOZ032>034-039>042-045>050-055>058-069>072-312000-
...CENTRAL MISSOURI...

CITY           SKY/WX    TMP DP  RH WIND       PRES   REMARKS
COLUMBIA       CLOUDY    39  29  67 S6        30.23F
JEFFERSON CITY LGT RAIN  41  25  53 E5        30.24F
ROLLA          LGT RAIN  40  27  59 S10       30.23F
SEDALIA        LGT RAIN  39  36  89 E6        30.21F FOG
WHITEMAN AFB   LGT RAIN  38  36  94 SE6       30.19F FOG
WARRENSBURG    DRIZZLE   37  36  93 E5        30.18F
OSAGE BEACH    CLOUDY    39  30  70 SE8       30.23F

$$
MOZ051-052-059>065-312000-
...EAST CENTRAL MISSOURI...

CITY           SKY/WX    TMP DP  RH WIND       PRES   REMARKS
ST LOUIS INTL  CLOUDY    45  23  42 SW5       30.27F
SPIRIT OF STL  CLOUDY    43  24  47 CALM      30.25F
ST CHARLES     CLOUDY    40  29  64 NE5       30.26F

$$
MOZ072>076-082>087-097>100-106>115-312000-
...SOUTH CENTRAL AND SOUTHEAST MISSOURI...

CITY           SKY/WX    TMP DP  RH WIND       PRES   REMARKS
CAPE GIRARDEAU CLOUDY    43  25  49 E7        30.30F
FARMINGTON     CLOUDY    43  21  42 S6        30.29F
POPLAR BLUFF   CLOUDY    40  27  59 SW6       30.31R
WEST PLAINS    CLOUDY    43  19  38 S8        30.24F

$$


USA.gov is the U.S. government's official web portal to all federal, state and local government web resources and services.